| time (UTC) | temp F | wind direction | speed MPH | gust MPH | rain 1hr in | rain 24hr in | rain mn in | humidity % | barometer mb |
| 20260507222501 | 33 | 135 | 1.0 | 2.0 | 0.00 | 0.00 | 0.00 | 84 | 1014.2 |
| 20260507221603 | 33 | 135 | 1.0 | 2.0 | 0.00 | 0.00 | 0.00 | 84 | 1014.2 |
| 20260507215802 | 33 | 135 | 1.0 | 2.0 | 0.00 | 0.00 | 0.00 | 84 | 1014.0 |
| 20260507214903 | 34 | 135 | 2.0 | 2.0 | 0.00 | 0.00 | 0.00 | 84 | 1014.1 |
| 20260507214001 | 35 | 120 | 1.0 | 2.0 | 0.00 | 0.00 | 0.00 | 84 | 1014.1 |
| 20260507213103 | 35 | 130 | 1.0 | 2.0 | 0.00 | 0.00 | 0.00 | 84 | 1014.1 |
| 20260507212201 | 35 | 135 | 2.0 | 2.0 | 0.00 | 0.00 | 0.00 | 84 | 1014.2 |
| 20260507211301 | 35 | 135 | 2.0 | 2.0 | 0.00 | 0.00 | 0.00 | 84 | 1013.9 |
| 20260507210401 | 36 | 135 | 1.0 | 2.0 | 0.00 | 0.00 | 0.00 | 84 | 1014.0 |
| 20260507205502 | 37 | 135 | 1.0 | 2.0 | 0.00 | 0.00 | 0.00 | 84 | 1013.8 |
| 20260507204601 | 38 | 148 | 1.0 | 1.0 | 0.00 | 0.00 | 0.00 | 84 | 1013.8 |
| 20260507202801 | 38 | 143 | 1.0 | 2.0 | 0.00 | 0.00 | 0.00 | 84 | 1013.7 |
| 20260507201902 | 39 | 142 | 1.0 | 2.0 | 0.00 | 0.00 | 0.00 | 84 | 1013.7 |
| 20260507201003 | 40 | 161 | 1.0 | 2.0 | 0.00 | 0.00 | 0.00 | 84 | 1013.6 |
| 20260507195203 | 43 | 183 | 1.0 | 3.0 | 0.00 | 0.00 | 0.00 | 84 | 1013.4 |
| 20260507193402 | 45 | 212 | 3.0 | 4.0 | 0.00 | 0.00 | 0.00 | 84 | 1013.3 |
| 20260507190703 | 49 | 242 | 5.0 | 6.0 | 0.00 | 0.00 | 0.00 | 84 | 1013.1 |
| 20260507185801 | 50 | 222 | 6.0 | 12.0 | 0.00 | 0.00 | 0.00 | 84 | 1013.1 |
| 20260507184901 | 51 | 242 | 5.0 | 7.0 | 0.00 | 0.00 | 0.00 | 84 | 1012.8 |
| 20260507184001 | 52 | 228 | 5.0 | 8.0 | 0.00 | 0.00 | 0.00 | 84 | 1012.8 |
| 20260507183102 | 52 | 214 | 4.0 | 7.0 | 0.00 | 0.00 | 0.00 | 84 | 1012.9 |
| 20260507182203 | 53 | 228 | 6.0 | 9.0 | 0.00 | 0.00 | 0.00 | 84 | 1012.8 |
| 20260507181303 | 53 | 232 | 7.0 | 10.0 | 0.00 | 0.00 | 0.00 | 84 | 1012.7 |
| 20260507180402 | 54 | 232 | 5.0 | 9.0 | 0.00 | 0.00 | 0.00 | 84 | 1012.7 |
| 20260507174601 | 54 | 233 | 5.0 | 7.0 | 0.00 | 0.00 | 0.00 | 84 | 1012.4 |
| 20260507173702 | 54 | 187 | 5.0 | 10.0 | 0.00 | 0.00 | 0.00 | 84 | 1012.2 |
| 20260507172801 | 55 | 204 | 5.0 | 8.0 | 0.00 | 0.00 | 0.00 | 84 | 1012.2 |
| 20260507171902 | 54 | 191 | 5.0 | 6.0 | 0.00 | 0.00 | 0.00 | 84 | 1012.2 |
| 20260507171001 | 54 | 218 | 5.0 | 7.0 | 0.00 | 0.00 | 0.00 | 84 | 1012.2 |
| 20260507165202 | 56 | 218 | 5.0 | 9.0 | 0.00 | 0.00 | 0.00 | 84 | 1011.9 |
| 20260507162501 | 57 | 218 | 5.0 | 9.0 | 0.00 | 0.00 | 0.00 | 84 | 1011.9 |
| 20260507161601 | 58 | 216 | 5.0 | 9.0 | 0.00 | 0.00 | 0.00 | 84 | 1011.9 |
| 20260507160703 | 58 | 261 | 5.0 | 5.0 | 0.00 | 0.00 | 0.00 | 84 | 1011.8 |
| 20260507155801 | 58 | 212 | 6.0 | 10.0 | 0.00 | 0.00 | 0.00 | 84 | 1011.9 |
| 20260507154903 | 58 | 204 | 6.0 | 10.0 | 0.00 | 0.00 | 0.00 | 84 | 1011.8 |
| 20260507154001 | 59 | 213 | 7.0 | 9.0 | 0.00 | 0.00 | 0.00 | 84 | 1011.8 |
| 20260507151302 | 59 | 213 | 5.0 | 9.0 | 0.00 | 0.00 | 0.00 | 84 | 1011.6 |
| 20260507150401 | 59 | 211 | 4.0 | 8.0 | 0.00 | 0.00 | 0.00 | 84 | 1011.5 |
| 20260507145503 | 59 | 228 | 5.0 | 8.0 | 0.00 | 0.00 | 0.00 | 84 | 1011.4 |
| 20260507144601 | 59 | 275 | 3.0 | 5.0 | 0.00 | 0.00 | 0.00 | 84 | 1011.5 |
| 20260507142803 | 59 | 244 | 6.0 | 8.0 | 0.00 | 0.00 | 0.00 | 84 | 1011.6 |
| 20260507141901 | 58 | 315 | 3.0 | 4.0 | 0.00 | 0.00 | 0.00 | 84 | 1011.5 |
| 20260507141003 | 58 | 278 | 5.0 | 5.0 | 0.00 | 0.00 | 0.00 | 84 | 1011.4 |
| 20260507135201 | 57 | 322 | 3.0 | 6.0 | 0.00 | 0.00 | 0.00 | 84 | 1011.3 |
| 20260507134301 | 56 | 325 | 4.0 | 8.0 | 0.00 | 0.00 | 0.00 | 84 | 1011.5 |
| 20260507133401 | 56 | 238 | 6.0 | 11.0 | 0.00 | 0.00 | 0.00 | 84 | 1011.5 |
| 20260507131603 | 59 | 213 | 4.0 | 6.0 | 0.00 | 0.00 | 0.00 | 84 | 1011.3 |
| 20260507130701 | 59 | 346 | 5.0 | 6.0 | 0.00 | 0.00 | 0.00 | 84 | 1011.3 |
| 20260507125803 | 59 | 198 | 4.0 | 5.0 | 0.00 | 0.00 | 0.00 | 84 | 1011.3 |
| 20260507124901 | 58 | 215 | 5.0 | 6.0 | 0.00 | 0.00 | 0.00 | 84 | 1011.3 |
| 20260507124002 | 57 | 241 | 5.0 | 8.0 | 0.00 | 0.00 | 0.00 | 84 | 1011.4 |
| 20260507123101 | 58 | 259 | 4.0 | 6.0 | 0.00 | 0.00 | 0.00 | 84 | 1011.3 |
| 20260507122202 | 56 | 167 | 3.0 | 4.0 | 0.00 | 0.00 | 0.00 | 84 | 1011.3 |
| 20260507121301 | 55 | 297 | 4.0 | 5.0 | 0.00 | 0.00 | 0.00 | 84 | 1011.3 |
| 20260507120401 | 55 | 356 | 5.0 | 8.0 | 0.00 | 0.00 | 0.00 | 84 | 1011.2 |
| 20260507115502 | 55 | 359 | 6.0 | 8.0 | 0.00 | 0.00 | 0.00 | 84 | 1011.3 |
| 20260507114601 | 56 | 239 | 4.0 | 6.0 | 0.00 | 0.00 | 0.00 | 84 | 1011.4 |
| 20260507113701 | 55 | 195 | 3.0 | 4.0 | 0.00 | 0.00 | 0.00 | 84 | 1011.3 |
| 20260507112801 | 54 | 259 | 4.0 | 8.0 | 0.00 | 0.00 | 0.00 | 84 | 1011.3 |
| 20260507111902 | 53 | 323 | 6.0 | 11.0 | 0.00 | 0.00 | 0.00 | 84 | 1011.6 |
| 20260507111001 | 53 | 323 | 5.0 | 8.0 | 0.00 | 0.00 | 0.00 | 84 | 1011.4 |
| 20260507104301 | 54 | 195 | 4.0 | 6.0 | 0.00 | 0.00 | 0.00 | 84 | 1011.4 |
| 20260507103402 | 55 | 202 | 3.0 | 4.0 | 0.00 | 0.00 | 0.00 | 84 | 1011.3 |
| 20260507102501 | 53 | 278 | 4.0 | 7.0 | 0.00 | 0.00 | 0.00 | 84 | 1011.4 |
| 20260507101602 | 52 | 281 | 4.0 | 6.0 | 0.00 | 0.00 | 0.00 | 84 | 1011.4 |
| 20260507100701 | 51 | 224 | 3.0 | 8.0 | 0.00 | 0.00 | 0.00 | 84 | 1011.3 |
| 20260507095801 | 51 | 245 | 3.0 | 7.0 | 0.00 | 0.00 | 0.00 | 84 | 1011.2 |
| 20260507094901 | 51 | 191 | 2.0 | 4.0 | 0.00 | 0.00 | 0.00 | 84 | 1011.0 |
| 20260507094001 | 50 | 333 | 4.0 | 7.0 | 0.00 | 0.00 | 0.00 | 84 | 1011.1 |
| 20260507093101 | 49 | 342 | 4.0 | 8.0 | 0.00 | 0.00 | 0.00 | 84 | 1011.1 |
| 20260507092203 | 49 | 2 | 4.0 | 5.0 | 0.00 | 0.00 | 0.00 | 84 | 1011.2 |
| 20260507091301 | 48 | 332 | 4.0 | 5.0 | 0.00 | 0.00 | 0.00 | 84 | 1011.1 |
| 20260507085501 | 47 | 344 | 5.0 | 8.0 | 0.00 | 0.00 | 0.00 | 84 | 1011.3 |
| 20260507084601 | 46 | 263 | 4.0 | 8.0 | 0.00 | 0.00 | 0.00 | 84 | 1011.3 |
| 20260507083701 | 46 | 320 | 5.0 | 9.0 | 0.00 | 0.00 | 0.00 | 84 | 1011.3 |
| 20260507081902 | 45 | 9 | 6.0 | 8.0 | 0.00 | 0.00 | 0.00 | 84 | 1011.1 |
| 20260507081001 | 45 | 196 | 3.0 | 6.0 | 0.00 | 0.00 | 0.00 | 84 | 1011.0 |
| 20260507075201 | 44 | 322 | 5.0 | 6.0 | 0.00 | 0.00 | 0.00 | 84 | 1010.9 |
| 20260507073401 | 42 | 333 | 4.0 | 6.0 | 0.00 | 0.00 | 0.00 | 84 | 1010.8 |
| 20260507072503 | 42 | 13 | 5.0 | 7.0 | 0.00 | 0.00 | 0.00 | 84 | 1010.7 |
| 20260507070702 | 41 | 325 | 5.0 | 9.0 | 0.00 | 0.00 | 0.00 | 84 | 1010.7 |
| 20260507065801 | 40 | 240 | 4.0 | 9.0 | 0.00 | 0.00 | 0.00 | 84 | 1010.6 |
| 20260507064901 | 40 | 228 | 3.0 | 6.0 | 0.00 | 0.00 | 0.00 | 84 | 1010.6 |
| 20260507063101 | 39 | 332 | 6.0 | 8.0 | 0.00 | 0.00 | 0.00 | 84 | 1010.5 |
| 20260507062201 | 38 | 326 | 5.0 | 7.0 | 0.00 | 0.00 | 0.00 | 84 | 1010.4 |
| 20260507060401 | 37 | 336 | 8.0 | 10.0 | 0.00 | 0.00 | 0.00 | 84 | 1010.3 |
| 20260507055503 | 37 | 342 | 8.0 | 11.0 | 0.00 | 0.00 | 0.00 | 84 | 1010.2 |
| 20260507054601 | 37 | 340 | 8.0 | 11.0 | 0.00 | 0.00 | 0.00 | 84 | 1010.2 |
| 20260507053701 | 37 | 350 | 8.0 | 11.0 | 0.00 | 0.00 | 0.00 | 84 | 1010.1 |
| 20260507052801 | 36 | 345 | 5.0 | 7.0 | 0.00 | 0.00 | 0.00 | 84 | 1009.9 |
| 20260507051901 | 35 | 350 | 4.0 | 6.0 | 0.00 | 0.00 | 0.00 | 84 | 1010.0 |
| 20260507051001 | 34 | 251 | 3.0 | 6.0 | 0.00 | 0.00 | 0.00 | 84 | 1009.9 |
| 20260507045201 | 33 | 238 | 3.0 | 6.0 | 0.00 | 0.00 | 0.00 | 84 | 1009.9 |
| 20260507044302 | 33 | 294 | 3.0 | 5.0 | 0.00 | 0.00 | 0.00 | 84 | 1009.9 |
| 20260507043401 | 33 | 356 | 3.0 | 4.0 | 0.00 | 0.00 | 0.00 | 84 | 1009.8 |
| 20260507042501 | 32 | 338 | 2.0 | 4.0 | 0.00 | 0.00 | 0.00 | 84 | 1009.9 |
| 20260507041601 | 32 | 188 | 2.0 | 3.0 | 0.00 | 0.00 | 0.00 | 84 | 1009.7 |
| 20260507040702 | 32 | 225 | 2.0 | 3.0 | 0.00 | 0.00 | 0.00 | 84 | 1009.8 |
| 20260507035801 | 31 | 208 | 2.0 | 3.0 | 0.00 | 0.00 | 0.00 | 84 | 1009.6 |
| 20260507034901 | 31 | 161 | 2.0 | 4.0 | 0.00 | 0.00 | 0.00 | 84 | 1009.4 |
| 20260507033101 | 32 | 179 | 3.0 | 6.0 | 0.00 | 0.00 | 0.00 | 84 | 1009.2 |
| 20260507032201 | 32 | 201 | 3.0 | 5.0 | 0.00 | 0.00 | 0.00 | 84 | 1009.4 |
| 20260507024601 | 32 | 185 | 2.0 | 5.0 | 0.00 | 0.00 | 0.00 | 84 | 1009.2 |
| 20260507023702 | 33 | 334 | 2.0 | 4.0 | 0.00 | 0.00 | 0.00 | 84 | 1009.1 |
| 20260507022801 | 33 | 200 | 2.0 | 3.0 | 0.00 | 0.00 | 0.00 | 84 | 1009.0 |
| 20260507021903 | 33 | 238 | 2.0 | 3.0 | 0.00 | 0.00 | 0.00 | 84 | 1009.1 |
| 20260507021001 | 33 | 218 | 2.0 | 3.0 | 0.00 | 0.00 | 0.00 | 84 | 1009.0 |
| 20260507015201 | 34 | 254 | 2.0 | 4.0 | 0.00 | 0.00 | 0.00 | 84 | 1009.0 |
| 20260507014303 | 34 | 239 | 2.0 | 2.0 | 0.00 | 0.00 | 0.00 | 84 | 1008.9 |
| 20260507013401 | 35 | 192 | 2.0 | 5.0 | 0.00 | 0.00 | 0.00 | 84 | 1009.2 |
| 20260507012501 | 35 | 330 | 4.0 | 7.0 | 0.00 | 0.00 | 0.00 | 84 | 1008.9 |
| 20260507011601 | 34 | 327 | 5.0 | 9.0 | 0.00 | 0.00 | 0.00 | 84 | 1008.9 |
| 20260507010701 | 34 | 151 | 2.0 | 2.0 | 0.00 | 0.00 | 0.00 | 84 | 1008.7 |
| 20260507005801 | 34 | 158 | 3.0 | 4.0 | 0.00 | 0.00 | 0.00 | 84 | 1008.8 |
| 20260507004903 | 33 | 166 | 2.0 | 4.0 | 0.00 | 0.00 | 0.00 | 84 | 1008.6 |
| 20260507004001 | 34 | 158 | 2.0 | 4.0 | 0.00 | 0.00 | 0.00 | 84 | 1008.6 |
| 20260507003101 | 34 | 58 | 3.0 | 5.0 | 0.00 | 0.00 | 0.00 | 84 | 1008.5 |
| 20260507002201 | 35 | 353 | 5.0 | 11.0 | 0.00 | 0.00 | 0.00 | 84 | 1008.5 |
| 20260507001301 | 35 | 334 | 4.0 | 8.0 | 0.00 | 0.00 | 0.00 | 84 | 1008.5 |
| 20260507000401 | 36 | 341 | 5.0 | 6.0 | 0.00 | 0.00 | 0.00 | 84 | 1008.6 |
| 20260506235501 | 36 | 341 | 5.0 | 7.0 | 0.00 | 0.00 | 0.00 | 84 | 1008.4 |
| 20260506234601 | 36 | 332 | 5.0 | 7.0 | 0.00 | 0.00 | 0.00 | 84 | 1008.5 |
| 20260506232801 | 36 | 308 | 4.0 | 6.0 | 0.00 | 0.00 | 0.00 | 84 | 1008.3 |
| 20260506231902 | 36 | 317 | 5.0 | 7.0 | 0.00 | 0.00 | 0.00 | 84 | 1008.4 |
| 20260506231001 | 36 | 343 | 5.0 | 7.0 | 0.00 | 0.00 | 0.00 | 84 | 1008.3 |
| 20260506225201 | 37 | 334 | 7.0 | 8.0 | 0.00 | 0.00 | 0.00 | 84 | 1008.1 |
| 20260506224301 | 37 | 341 | 6.0 | 8.0 | 0.00 | 0.00 | 0.00 | 84 | 1008.3 |
| 20260506223401 | 38 | 311 | 8.0 | 11.0 | 0.00 | 0.00 | 0.00 | 84 | 1008.1 |